SCP
1 2 0 1 1 1 1 0 0 0 0 0 0 1 0 1 0 0 0 0 0 0 0 0 0 0 0 0 0 0 0 0
2 3 1 1 0 0 0 0 0 0 0 0 0 1 0 0 0 0 0 0 0 0 0 0 0 0 0 0 0 0 0 0
2 2 2 2 1 0 0 0 0 0 0 0 0 0 0 0 0 0 0 0 0 0 0 0 0 0 0 0 0 0 0 0
1 2 1 1 0 0 0 0 0 0 0 0 0 0 0 0 0 0 0 0 0 0 0 0 0 0 0 0 0 0 0 0
1 1 1 1 0 0 0 0 0 0 0 0 0 0 0 0 0 0 -0 0 0 0 0 0 0 0 0 0 0 0 0 0
1 0 0 1 0 0 0 0 0 0 0 0 0 0 -0 0 -0 -0 0 0 -0 0 0 0 -0 0 0 0 0 0 -0 -0
1 0 0 1 0 0 0 0 0 0 0 0 0 -0 -0 0 -0 -0 0 -0 -0 0 0 0 -0 0 0 0 -0 -0 -0 0
0 0 0 0 0 0 0 0 0 -0 0 -0 0 -0 -0 -0 -0 0 0 -0 0 0 -0 -0 -0 -0 -0 0 -0 0 -0 0
0 0 -0 0 0 0 0 -0 -0 0 -0 0 0 0 0 0 0 0 -0 -0 0 0 -0 -0 -0 -0 -0 -0 0 -0 -0 0
0 0 -0 0 0 -0 0 -0 0 0 0 -0 -0 0 0 -0 -0 0 0 0 0 0 0 -0 -0 -0 -0 0 -0 -0 -0 -0
0 0 0 0 0 -0 -0 0 -0 0 -0 -0 -0 -0 0 -0 -0 -0 0 0 0 -0 -0 0 0 0 -0 -0 -0 0 0 0
0 0 0 0 -0 0 -0 -0 -0 -0 -0 -0 -0 -0 -0 0 0 0 0 0 0 -0 0 -0 -0 0 -0 -0 0 0 0 0
0 0 0 -0 -0 -0 0 -0 -0 0 -0 -0 0 0 0 -0 0 0 0 0 0 0 0 -0 -0 0 -0 -0 -0 0 0 0
0 0 0 0 -0 -0 -0 -0 -0 -0 -0 -0 0 -0 -0 0 0 0 0 0 0 0 0 0 0 -0 -0 0 -0 -0 -0 0
0 0 0 -0 -0 0 -0 -0 0 -0 -0 -0 0 0 -0 -0 0 0 0 0 -0 -0 -0 -0 -0 -0 -0 -0 0 0 0 0
1 0 0 -0 -0 0 -0 -0 -0 0 0 -0 -0 -0 -0 -0 -0 -0 -0 -0 0 -0 -0 -0 0 0 -0 0 0 0 0 0
0 0 0 0 0 0 0 0 0 0 0 0 0 0 0 -0 -0 -0 -0 -0 -0 0 -0 0 0 0 0 0 0 0 0 0
0 0 0 0 0 0 0 0 -0 0 0 0 0 0 -0 0 0 0 0 -0 -0 -0 -0 -0 -0 -0 -0 -0 0 0 0 0
0 -0 0 0 0 0 0 0 0 0 0 0 0 0 0 -0 -0 0 -0 0 0 0 0 0 -0 -0 -0 -0 0 0 0 0
0 -0 0 0 0 0 0 0 0 0 0 0 0 0 0 0 0 0 -0 0 0 0 0 -0 -0 0 0 -0 0 0 0 0
Wind_Speed_500mb
13 23 39 42 42 42 41 42 43 43 43 48 47 47 41 40 35 33 30 29 27 24 23 21 19 18 16 19 22 24 25 23
3 4 36 45 43 44 44 44 43 44 43 41 42 40 37 33 31 30 28 26 27 25 21 17 15 14 12 16 17 19 24 23
4 7 22 35 44 46 46 45 44 41 40 38 36 33 30 29 29 28 27 27 25 21 17 15 10 7 9 6 5 13 11 16
13 16 26 33 46 47 46 44 40 37 36 34 32 31 30 30 29 30 27 26 24 20 20 11 8 7 7 8 8 7 7 17
22 32 31 39 47 47 44 41 39 38 35 33 31 30 33 33 32 31 28 25 26 19 15 11 8 4 3 3 8 11 11 17
27 39 48 33 47 45 42 42 40 37 33 30 30 29 31 30 31 29 28 24 22 17 13 11 6 4 2 4 10 11 13 16
28 42 51 40 48 45 44 42 37 34 34 25 24 33 30 32 31 30 25 23 20 15 12 11 7 8 6 6 10 14 11 14
38 48 60 47 49 45 44 40 37 31 28 27 28 26 28 30 30 27 22 19 16 13 12 10 5 8 8 11 10 11 14 14
54 57 68 49 50 47 42 40 38 30 32 29 30 27 27 31 28 24 21 19 18 16 14 11 10 7 7 9 10 10 12 18
59 68 59 53 50 46 42 40 33 30 34 32 32 28 28 28 23 20 20 21 19 16 14 13 7 6 7 8 10 11 14 12
62 66 61 51 48 46 43 40 36 33 36 33 30 29 27 21 22 22 22 21 18 18 16 13 8 9 8 8 15 14 18 20
61 61 58 52 48 45 42 47 29 37 35 31 27 26 22 20 13 16 17 22 22 18 20 18 12 16 10 17 17 24 24 34
55 54 52 51 51 48 45 43 41 43 34 32 25 18 21 13 19 14 11 16 16 17 17 20 17 19 16 22 24 27 35 41
47 47 50 51 52 51 46 44 39 39 30 28 23 24 21 21 18 17 12 11 19 21 18 22 18 11 17 27 26 34 37 40
48 50 50 51 49 46 45 48 39 33 28 29 22 22 32 28 20 18 17 21 21 24 22 14 8 17 20 29 27 30 44 36
49 49 50 48 43 40 36 37 35 31 28 26 23 29 21 27 21 20 21 18 17 17 17 16 23 22 22 32 31 40 40 32
63 45 41 37 37 29 28 37 34 33 27 27 20 27 25 25 22 24 15 22 24 19 24 25 25 23 28 29 32 27 26 18
45 54 42 26 22 15 11 36 34 32 24 24 13 25 20 23 24 24 26 26 25 21 18 21 30 31 31 33 33 27 23 20
34 42 43 41 27 13 22 20 23 29 25 26 11 23 21 23 24 21 24 22 25 30 25 16 18 22 21 25 15 14 17 16
39 35 29 28 33 19 32 42 29 17 32 29 23 18 22 19 19 23 21 18 18 28 29 21 29 26 18 14 14 18 16 15
Wind_Direction_500mb
189 204 159 149 146 144 144 142 140 137 134 132 134 137 138 141 143 145 150 153 156 161 165 167 174 186 208 225 230 231 226 220
338 252 155 149 149 145 141 138 138 137 135 136 135 138 142 143 147 148 149 151 150 156 159 168 186 197 227 250 241 233 228 220
40 125 122 139 144 142 140 139 137 138 138 140 143 147 149 151 150 147 147 148 153 156 165 172 179 199 204 231 219 217 201 186
170 157 158 149 147 144 141 139 139 140 141 145 149 152 153 153 151 153 152 152 156 164 172 162 149 182 228 239 230 197 183 170
190 175 164 166 150 145 143 142 141 140 138 140 144 149 154 157 159 148 152 159 160 151 145 142 114 167 210 216 207 189 183 177
214 180 166 165 147 148 145 143 143 143 140 141 144 141 151 153 154 155 162 159 168 152 148 132 114 88 131 175 174 166 169 183
211 177 168 155 153 152 149 147 146 145 136 132 153 148 155 155 159 159 162 165 157 154 137 116 114 101 94 144 150 142 132 151
189 170 165 160 154 156 153 152 142 128 140 152 147 154 149 154 156 163 156 158 152 155 127 117 144 101 111 139 142 156 159 163
171 162 163 162 158 156 154 145 140 149 148 141 144 144 148 158 159 167 166 170 168 157 134 124 137 91 121 130 157 164 166 166
169 160 166 155 159 158 151 136 150 158 150 134 147 156 159 156 165 167 172 178 168 161 147 131 129 120 111 110 145 154 159 176
164 161 155 156 160 159 144 148 147 146 135 138 142 151 154 161 171 178 177 180 182 178 175 160 159 142 116 102 142 148 148 145
169 156 152 154 159 158 146 151 146 139 136 140 146 149 151 156 160 171 178 187 188 182 183 161 181 157 143 138 136 139 141 140
151 153 150 155 158 151 150 154 153 145 140 137 140 138 143 146 141 121 141 169 168 160 173 160 167 163 158 152 139 140 153 139
144 146 151 155 158 152 153 165 157 147 152 157 145 142 141 132 122 118 125 138 153 152 150 153 170 176 150 149 150 155 149 129
142 148 151 154 156 154 159 165 163 159 167 142 146 140 146 140 130 110 117 129 149 168 174 179 155 152 139 141 144 148 142 129
118 135 147 152 154 152 163 160 158 162 160 150 171 137 136 147 138 132 124 128 129 139 147 148 135 135 137 143 145 150 147 145
139 122 97 147 140 140 162 160 160 160 155 167 162 135 134 130 138 147 139 134 126 135 139 143 142 139 142 147 151 156 164 163
141 119 99 83 89 126 135 153 163 160 164 174 154 142 141 131 150 143 151 130 130 124 133 156 153 151 148 152 162 160 171 174
132 148 146 136 110 130 153 137 176 173 165 177 181 156 151 145 134 135 139 145 147 147 131 124 141 138 155 156 152 150 153 181
118 136 148 147 131 115 168 175 183 193 166 166 177 171 150 153 146 140 142 144 135 136 128 106 128 142 146 157 183 204 186 186
Wind_Speed_850mb
13 23 39 42 42 42 41 42 43 43 43 48 47 47 41 40 35 33 30 29 27 24 23 21 19 18 16 19 22 24 25 23
3 4 36 45 43 44 44 44 43 44 43 41 42 40 37 33 31 30 28 26 27 25 21 17 15 14 12 16 17 19 24 23
4 7 22 35 44 46 46 45 44 41 40 38 36 33 30 29 29 28 27 27 25 21 17 15 10 7 9 6 5 13 11 16
13 16 26 33 46 47 46 44 40 37 36 34 32 31 30 30 29 30 27 26 24 20 20 11 8 7 7 8 8 7 7 17
22 32 31 39 47 47 44 41 39 38 35 33 31 30 33 33 32 31 28 25 26 19 15 11 8 4 3 3 8 11 11 17
27 39 48 33 47 45 42 42 40 37 33 30 30 29 31 30 31 29 28 24 22 17 13 11 6 4 2 4 10 11 13 16
28 42 51 40 48 45 44 42 37 34 34 25 24 33 30 32 31 30 25 23 20 15 12 11 7 8 6 6 10 14 11 14
38 48 60 47 49 45 44 40 37 31 28 27 28 26 28 30 30 27 22 19 16 13 12 10 5 8 8 11 10 11 14 14
54 57 68 49 50 47 42 40 38 30 32 29 30 27 27 31 28 24 21 19 18 16 14 11 10 7 7 9 10 10 12 18
59 68 59 53 50 46 42 40 33 30 34 32 32 28 28 28 23 20 20 21 19 16 14 13 7 6 7 8 10 11 14 12
62 66 61 51 48 46 43 40 36 33 36 33 30 29 27 21 22 22 22 21 18 18 16 13 8 9 8 8 15 14 18 20
61 61 58 52 48 45 42 47 29 37 35 31 27 26 22 20 13 16 17 22 22 18 20 18 12 16 10 17 17 24 24 34
55 54 52 51 51 48 45 43 41 43 34 32 25 18 21 13 19 14 11 16 16 17 17 20 17 19 16 22 24 27 35 41
47 47 50 51 52 51 46 44 39 39 30 28 23 24 21 21 18 17 12 11 19 21 18 22 18 11 17 27 26 34 37 40
48 50 50 51 49 46 45 48 39 33 28 29 22 22 32 28 20 18 17 21 21 24 22 14 8 17 20 29 27 30 44 36
49 49 50 48 43 40 36 37 35 31 28 26 23 29 21 27 21 20 21 18 17 17 17 16 23 22 22 32 31 40 40 32
63 45 41 37 37 29 28 37 34 33 27 27 20 27 25 25 22 24 15 22 24 19 24 25 25 23 28 29 32 27 26 18
45 54 42 26 22 15 11 36 34 32 24 24 13 25 20 23 24 24 26 26 25 21 18 21 30 31 31 33 33 27 23 20
34 42 43 41 27 13 22 20 23 29 25 26 11 23 21 23 24 21 24 22 25 30 25 16 18 22 21 25 15 14 17 16
39 35 29 28 33 19 32 42 29 17 32 29 23 18 22 19 19 23 21 18 18 28 29 21 29 26 18 14 14 18 16 15
Wind_Direction_850mb
189 204 159 149 146 144 144 142 140 137 134 132 134 137 138 141 143 145 150 153 156 161 165 167 174 186 208 225 230 231 226 220
338 252 155 149 149 145 141 138 138 137 135 136 135 138 142 143 147 148 149 151 150 156 159 168 186 197 227 250 241 233 228 220
40 125 122 139 144 142 140 139 137 138 138 140 143 147 149 151 150 147 147 148 153 156 165 172 179 199 204 231 219 217 201 186
170 157 158 149 147 144 141 139 139 140 141 145 149 152 153 153 151 153 152 152 156 164 172 162 149 182 228 239 230 197 183 170
190 175 164 166 150 145 143 142 141 140 138 140 144 149 154 157 159 148 152 159 160 151 145 142 114 167 210 216 207 189 183 177
214 180 166 165 147 148 145 143 143 143 140 141 144 141 151 153 154 155 162 159 168 152 148 132 114 88 131 175 174 166 169 183
211 177 168 155 153 152 149 147 146 145 136 132 153 148 155 155 159 159 162 165 157 154 137 116 114 101 94 144 150 142 132 151
189 170 165 160 154 156 153 152 142 128 140 152 147 154 149 154 156 163 156 158 152 155 127 117 144 101 111 139 142 156 159 163
171 162 163 162 158 156 154 145 140 149 148 141 144 144 148 158 159 167 166 170 168 157 134 124 137 91 121 130 157 164 166 166
169 160 166 155 159 158 151 136 150 158 150 134 147 156 159 156 165 167 172 178 168 161 147 131 129 120 111 110 145 154 159 176
164 161 155 156 160 159 144 148 147 146 135 138 142 151 154 161 171 178 177 180 182 178 175 160 159 142 116 102 142 148 148 145
169 156 152 154 159 158 146 151 146 139 136 140 146 149 151 156 160 171 178 187 188 182 183 161 181 157 143 138 136 139 141 140
151 153 150 155 158 151 150 154 153 145 140 137 140 138 143 146 141 121 141 169 168 160 173 160 167 163 158 152 139 140 153 139
144 146 151 155 158 152 153 165 157 147 152 157 145 142 141 132 122 118 125 138 153 152 150 153 170 176 150 149 150 155 149 129
142 148 151 154 156 154 159 165 163 159 167 142 146 140 146 140 130 110 117 129 149 168 174 179 155 152 139 141 144 148 142 129
118 135 147 152 154 152 163 160 158 162 160 150 171 137 136 147 138 132 124 128 129 139 147 148 135 135 137 143 145 150 147 145
139 122 97 147 140 140 162 160 160 160 155 167 162 135 134 130 138 147 139 134 126 135 139 143 142 139 142 147 151 156 164 163
141 119 99 83 89 126 135 153 163 160 164 174 154 142 141 131 150 143 151 130 130 124 133 156 153 151 148 152 162 160 171 174
132 148 146 136 110 130 153 137 176 173 165 177 181 156 151 145 134 135 139 145 147 147 131 124 141 138 155 156 152 150 153 181
118 136 148 147 131 115 168 175 183 193 166 166 177 171 150 153 146 140 142 144 135 136 128 106 128 142 146 157 183 204 186 186